This is the latest recevied weather packets stored in our database for station/object 9D9-WX. If no packets are shown the sender has not sent any weather packets the latest 10 day(s).
| Time | Temp. | Humidity | Pressure | Rain* | Wind** | Luminosity | Snow |
|---|---|---|---|---|---|---|---|
| 1777559430 | 6.67° C | 78% | 987.7 hPa | 0 mm | - | - | - |
| 1777558510 | 6.67° C | 78% | 987.8 hPa | 0 mm | - | - | - |
| 1777557634 | 6.11° C | 78% | 987.8 hPa | 0 mm | - | - | - |
| 1777556710 | 6.11° C | 84% | 987.2 hPa | 0 mm | - | - | - |
| 1777555827 | 6.11° C | 84% | 987.2 hPa | 0 mm | - | - | - |
| 1777554909 | 5.56° C | 84% | 987.2 hPa | 0 mm | - | - | - |
| 1777554033 | 5.56° C | 84% | 987.2 hPa | 0 mm | - | - | - |
| 1777553110 | 5° C | 85% | 985.8 hPa | 0 mm | - | - | - |
| 1777552221 | 4.44° C | 86% | 986.8 hPa | 0 mm | - | - | - |
| 1777551310 | 3.89° C | 86% | 986.8 hPa | 0 mm | - | - | - |
| 1777550434 | 3.89° C | 86% | 986.8 hPa | 0 mm | - | - | - |
| 1777549510 | 3.33° C | 89% | 985.7 hPa | 0 mm | - | - | - |
| 1777548627 | 3.33° C | 91% | 986.5 hPa | 0 mm | - | - | - |
| 1777547708 | 2.78° C | 91% | 986.5 hPa | 0 mm | - | - | - |
| 1777546829 | 2.78° C | 91% | 986.5 hPa | 0 mm | - | - | - |
| 1777545908 | 2.78° C | 93% | 986.1 hPa | 0 mm | - | - | - |
| 1777545026 | 2.78° C | 93% | 986.9 hPa | 0 mm | - | - | - |
| 1777544109 | 2.78° C | 93% | 986.9 hPa | 0 mm | - | - | - |
| 1777543229 | 2.78° C | 91% | 987.2 hPa | 0 mm | - | - | - |
| 1777542308 | 2.78° C | 91% | 986.8 hPa | 0 mm | - | - | - |
| 1777541425 | 2.78° C | 91% | 986.8 hPa | 0 mm | - | - | - |
| 1777540508 | 2.78° C | 91% | 986.8 hPa | 0 mm | - | - | - |
| 1777539627 | 3.33° C | 91% | 986.8 hPa | 0 mm | - | - | - |
| 1777538708 | 3.33° C | 92% | 985.8 hPa | 0 mm | - | - | - |
| 1777537827 | 3.33° C | 92% | 986.1 hPa | 0 mm | - | - | - |
* Rain latest hour (hover to see other rain measurements)
** Current wind speed in m/s (hover to see current wind gust speed)